Skip Page Navigation
NASA JPL Caltech
NASA Logo - Jet Propulsion Laboratory + View the NASA Portal
+ Center for Near-Earth Object Studies
JPL Home Earth Solar System Stars & Galaxies Technology
JPL Solar System Dynamics
BODIES ORBITS EPHEMERIDES TOOLS PHYSICAL DATA DISCOVERY FAQ SITE MAP
JPL Small-Body Database Browser
Search: [ help ]  
173320 (1999 VP94)
Classification: Main-belt Asteroid          SPK-ID: 2173320
Ephemeris | Orbit Diagram | Orbital Elements | Mission Design | Physical Parameters | Discovery Circumstances ]

[ show orbit diagram ]
Orbital Elements at Epoch 2459000.5 (2020-May-31.0) TDB
Reference: JPL 18 (heliocentric ecliptic J2000)
 Element Value Uncertainty (1-sigma)   Units 
e .1655628324642794 5.5776e-08  
a 2.397647150797024 1.1776e-08 au
q 2.00068589726116 1.3141e-07 au
i .7314223525532944 4.3734e-06 deg
node 352.7487178081681 0.00032956 deg
peri 33.84064169174297 0.00032975 deg
M 197.1734675598101 1.4003e-05 deg
tp 2459613.836776356545
(2022-Feb-03.33677636)
5.5508e-05 TDB
period 1356.05196634315
3.71
9.9905e-06
2.735e-08
d
yr
n .2654765517362936 1.9558e-09 deg/d
Q 2.794608404332889 1.3726e-08 au
  Orbit Determination Parameters
   # obs. used (total)      492  
   data-arc span      7513 days (20.57 yr)  
   first obs. used      1999-10-02  
   last obs. used      2020-04-27  
   planetary ephem.      DE431  
   SB-pert. ephem.      SB431-N16  
   condition code      0  
   norm. resid. RMS      .54515  
   source      ORB  
   producer      Otto Matic  
   solution date      2020-May-21 03:26:41  

Additional Information
 Earth MOID = 1.00503 au 
 Jupiter MOID = 2.65352 au 
 T_jup = 3.509 
[ show covariance matrix ]

Ephemeris | Orbit Diagram | Orbital Elements | Mission Design | Physical Parameters | Discovery Circumstances ]

Physical Parameter Table
Parameter Symbol Value Units Sigma Reference Notes
absolute magnitude H 16.6   n/a MPO469857  

173320 (1999 VP94)          Discovered 1999-Nov-09 by LINEAR at Socorro
Reference: 20080122/Numbers.arcLast Updated: 2008-01-28
Ephemeris | Orbit Diagram | Orbital Elements | Mission Design | Physical Parameters | Discovery Circumstances ]
ABOUT SSD CREDITS/AWARDS PRIVACY/COPYRIGHT GLOSSARY LINKS
FirstGov 2020-Aug-04 18:22 UT
(server date/time)  
NASA Home Page
Site Manager:   Ryan S. Park
Webmaster  Alan B. Chamberlin